Terminal Aerodrome Forecast
Issued by NWS Brownsville, TX

Home | Current Version | Previous Version | Text Only | Print | Product List | Glossary On
Versions: 1 2 3 4 5 6 7 8 9 10 11 12 13 14 15 16 17 18 19 20 21 22 23 24 25 26 27
000
FTUS44 KBRO 201700 CCA
TAFBRO
TAF COR
KBRO 201737Z 2018/2118 35012KT 6SM BR BKN010 OVC025
      TEMPO 2018/2022 5SM -DZ
     FM202200 01007KT P6SM OVC015
     FM210600 01004KT 5SM -DZ OVC008
     FM211500 02006KT 5SM BR OVC010=

USA.gov is the U.S. government's official web portal to all federal, state and local government web resources and services.